Weather History for KHVR - May, 2014

Change the Weather History Date:

Tuesday, May 6, 2014

  Actual Average Record
Temperature  
Mean Temperature 41 °F 51 °F  
Max Temperature 52 °F 65 °F 92 °F (1928)
Min Temperature 30 °F 37 °F 24 °F (1929)
Degree Days  
Heating Degree Days 24 14  
Month to date heating degree days 113 91  
Since 1 July heating degree days 8126 7828  
Cooling Degree Days 0 0  
Month to date cooling degree days 0 0  
Year to date cooling degree days 0 1  
Moisture  
Dew Point 33 °F    
Average Humidity 77    
Maximum Humidity 100    
Minimum Humidity 53    
Precipitation  
Precipitation T in 0.05 in 1.23 in (1975)
Month to date precipitation 0.35 0.26  
Year to date precipitation 3.07 2.25  
Snow  
Snow 0.00 in 0.10 in 0.60 in (1979)
Month to date snowfall 0.0 0.4  
Since 1 July snowfall 44.4 37.6  
Snow Depth 0.00 in    
Sea Level Pressure  
Sea Level Pressure 29.89 in    
Wind  
Wind Speed 10 mph (NW)    
Max Wind Speed 24 mph    
Max Gust Speed 29 mph    
Visibility 8 miles    
Events Fog    
T = Trace of Precipitation, MM = Missing Value Source: NWS Daily Summary

Daily Weather History Graph

Daily Weather History Graph

Search for Another Location

Airport or City:

Trip Planner

Search our weather history database for the weather conditions in past years. The results will help you decide how hot, cold, wet, or windy it might be!

Date:

Astronomy

May. 06, 2014 Rise Set
Actual Time 5:51 AM MDT 8:40 PM MDT
Civil Twilight 5:15 AM MDT 9:17 PM MDT
Nautical Twilight 4:29 AM MDT 10:03 PM MDT
Astronomical Twilight 3:33 AM MDT 10:59 PM MDT
Moon 12:16 PM MDT (5/6) 1:56 AM MDT (5/6)
Length of Visible Light 16h 02m
Length of Day
14h 49m
Waxing Crescent, 46% of the Moon is Illuminated
May 6
Waxing Crescent
May 6
First Quarter
May 14
Full
May 21
Last Quarter
May 28
New

Hourly Weather History & Observations

Time (MDT) Temp. Windchill Dew Point Humidity Pressure Visibility Wind Dir Wind Speed Gust Speed Precip Events Conditions
12:53 AM 43.0 °F 40.3 °F 37.9 °F 82% 29.83 in 10.0 mi ENE 4.6 mph - N/A   Overcast
1:53 AM 39.9 °F 36.7 °F 36.0 °F 86% 29.82 in 10.0 mi NE 4.6 mph - N/A   Scattered Clouds
5:53 AM 30.9 °F 26.2 °F 30.0 °F 96% 29.83 in 10.0 mi WSW 4.6 mph - N/A   Clear
6:04 AM 30.0 °F 23.2 °F 28.9 °F 96% 29.79 in 10.0 mi SW 6.9 mph - N/A   Scattered Clouds
6:13 AM 30.0 °F 24.1 °F 28.9 °F 96% 29.79 in 10.0 mi WSW 5.8 mph - N/A   Mostly Cloudy
6:43 AM 33.1 °F 27.7 °F 32.0 °F 96% 29.80 in 10.0 mi West 5.8 mph - N/A   Scattered Clouds
6:50 AM 33.8 °F 27.7 °F 32.0 °F 93% 29.79 in 2.5 mi West 6.9 mph - N/A   Mostly Cloudy
6:53 AM 33.1 °F 27.7 °F 32.0 °F 96% 29.83 in 1.5 mi West 5.8 mph - N/A   Mostly Cloudy
6:55 AM 33.1 °F 27.7 °F 32.0 °F 96% 29.79 in 0.8 mi West 5.8 mph - N/A   Mostly Cloudy
7:04 AM 34.0 °F 28.0 °F 33.1 °F 96% 29.79 in 0.2 mi West 6.9 mph - N/A Fog Fog
8:25 AM 39.0 °F 33.4 °F 37.0 °F 93% 29.81 in 1.0 mi WNW 8.1 mph - 0.00 in   Overcast
8:37 AM 39.0 °F 34.0 °F 37.9 °F 96% 29.81 in 0.8 mi WNW 6.9 mph - 0.00 in   Overcast
8:42 AM 39.9 °F 33.9 °F 39.0 °F 97% 29.82 in 1.5 mi WNW 9.2 mph - 0.00 in   Overcast
8:46 AM 41.0 °F 34.7 °F 39.0 °F 93% 29.82 in 3.0 mi West 10.4 mph - 0.00 in   Overcast
8:53 AM 41.0 °F 36.4 °F 39.9 °F 96% 29.85 in 9.0 mi West 6.9 mph - 0.00 in   Overcast
9:14 AM 43.0 °F 36.8 °F 39.9 °F 89% 29.82 in 10.0 mi WNW 11.5 mph - N/A   Mostly Cloudy
9:45 AM 48.0 °F - 41.0 °F 77% 29.82 in 10.0 mi WNW 13.8 mph - N/A   Mostly Cloudy
9:53 AM 48.9 °F - 39.9 °F 71% 29.83 in 10.0 mi WNW 15.0 mph - N/A   Mostly Cloudy
10:53 AM 48.0 °F - 39.0 °F 71% 29.86 in 10.0 mi NW 16.1 mph 23.0 mph N/A   Overcast
11:53 AM 52.0 °F - 39.0 °F 61% 29.86 in 10.0 mi NW 16.1 mph 21.9 mph N/A   Overcast
12:16 PM 51.1 °F - 37.9 °F 61% 29.83 in 10.0 mi NW 16.1 mph - N/A   Overcast
12:53 PM 50.0 °F - 36.0 °F 59% 29.86 in 10.0 mi NNW 15.0 mph - N/A   Overcast
1:53 PM 46.9 °F - 34.0 °F 61% 29.89 in 10.0 mi North 19.6 mph 26.5 mph 0.00 in   Overcast
2:53 PM 45.0 °F 37.4 °F 33.1 °F 63% 29.93 in 10.0 mi North 18.4 mph 25.3 mph N/A   Overcast
3:27 PM 45.0 °F 37.4 °F 32.0 °F 60% 29.90 in 10.0 mi North 18.4 mph - N/A   Overcast
3:36 PM 44.1 °F 36.5 °F 32.0 °F 63% 29.90 in 10.0 mi North 17.3 mph 26.5 mph N/A   Overcast
3:53 PM 44.1 °F 36.5 °F 30.9 °F 60% 29.96 in 10.0 mi North 17.3 mph 23.0 mph N/A   Overcast
4:53 PM 44.1 °F 36.8 °F 30.0 °F 58% 29.99 in 10.0 mi North 16.1 mph - N/A   Overcast
5:53 PM 44.1 °F 36.5 °F 28.9 °F 55% 30.00 in 10.0 mi North 17.3 mph - N/A   Mostly Cloudy
6:53 PM 41.0 °F 32.8 °F 28.9 °F 62% 30.03 in 10.0 mi North 16.1 mph - N/A   Overcast
7:53 PM 39.9 °F 33.9 °F 27.0 °F 60% 30.06 in 10.0 mi North 9.2 mph - N/A   Overcast
8:53 PM 39.0 °F 32.8 °F 28.0 °F 65% 30.06 in 10.0 mi NNE 9.2 mph - N/A   Overcast
9:53 PM 37.9 °F - 28.0 °F 68% 30.06 in 10.0 mi Calm Calm - N/A   Mostly Cloudy
10:53 PM 34.0 °F 29.8 °F 27.0 °F 75% 30.09 in 10.0 mi WNW 4.6 mph - N/A   Mostly Cloudy
11:53 PM 34.0 °F 29.8 °F 27.0 °F 75% 30.08 in 10.0 mi WNW 4.6 mph - N/A   Overcast